This demonstration page uses our WeatherBlox Daily Observations layout. Learn more.

Left ArrowRight Arrow

39.92423, -83.80882

Hourly Observations for June 9, 2015

Temp ( °F °C ) Dew Point ( °F °C ) Humidity (%) Winds ( mph kmh ) Pressure ( in mb ) Visibility ( mi km ) Precip ( " mm )
12:56 am 00:56 Mostly Cloudy with Light Rain 60 15.5 60 15.5 100 100 SW 8 13 29.82 1010 5 8.0467 0.06 1.524
1:56 am 01:56 Partly Cloudy 59 15 59 15 100 100 SSW 10 17 29.76 1008 9 14.48406 0.01 0.254
2:56 am 02:56 Clear 58 14.4 58 14.4 100 100 WSW 8 13 29.78 1008 8 12.87472 0 0
3:56 am 03:56 Clear 58 14.4 58 14.4 100 100 SW 9 15 29.78 1008 8 12.87472 0 0
4:56 am 04:56 Clear 58 14.4 58 14.4 100 100 WSW 8 13 29.8 1009 7 11.26538 0 0
5:56 am 05:56 Clear with Mist and Fog 57 13.8 57 13.8 100 100 WSW 8 13 29.82 1010 6 9.65604 0 0
6:56 am 06:56 Sunny with Mist and Fog 58 14.4 58 14.4 100 100 WSW 8 13 29.83 1010 4 6.43736 0 0
7:56 am 07:56 Sunny with Mist and Fog 60 15.5 60 15.5 100 100 W 8 13 29.85 1011 6 9.65604 0 0
8:56 am 08:56 Sunny 62 16.6 60 15.5 93 93 W 9 15 29.86 1011 7 11.26538 0 0
9:56 am 09:56 Sunny 65 18.3 60 15.5 84 84 W 7 11 29.87 1012 7 11.26538 0 0
10:56 am 10:56 Sunny 68 20 60 15.5 75 75 W 7 11 29.88 1012 7 11.26538 0 0
11:56 am 11:56 Sunny 70 21.1 60 15.5 71 71 W 8 13 29.88 1012 9 14.48406 0 0
12:56 pm 12:56 Sunny 73 22.7 61 16.1 66 66 W 7 11 29.88 1012 9 14.48406 0 0
1:56 pm 13:56 Sunny 75 23.8 61 16.1 62 62 W 8 13 29.88 1012 9 14.48406 0 0
2:56 pm 14:56 Mostly Sunny 76 24.4 61 16.1 60 60 NW 9 15 29.86 1011 8 12.87472 0 0
3:56 pm 15:56 Sunny 77 25 61 16.1 58 58 WNW 6 9 29.86 1011 8 12.87472 0 0
4:56 pm 16:56 Mostly Sunny 77 25 61 16.1 58 58 WNW 9 15 29.86 1011 9 14.48406 0 0
5:56 pm 17:56 Sunny 76 24.4 61 16.1 60 60 NW 8 13 29.86 1011 7 11.26538 0 0
6:56 pm 18:56 Sunny 75 23.8 61 16.1 62 62 NW 6 9 29.85 1011 7 11.26538 0 0
7:56 pm 19:56 Sunny 73 22.7 63 17.2 71 71 WSW 3 6 29.85 1011 7 11.26538 0 0
8:56 pm 20:56 Hazy 69 20.5 62 16.6 78 78 SW 3 6 29.86 1011 6 9.65604 0 0
9:56 pm 21:56 Clear 65 18.3 62 16.6 90 90 SE 3 6 29.87 1011 7 11.26538 0 0
10:56 pm 22:56 Clear 63 17.2 62 16.6 96 96 S 3 6 29.88 1012 7 11.26538 0 0
11:56 pm 23:56 Clear 62 16.6 61 16.1 97 97 Calm 29.89 1012 7 11.26538 0 0

Powered by AerisWeather